Change the Weather History Date:

Friday, April 26, 2013

  Actual Average Record
Temperature  
Mean Temperature 47 °F 40 °F  
Max Temperature 66 °F 52 °F 78 °F (1977)
Min Temperature 27 °F 28 °F 11 °F (1948)
Degree Days  
Heating Degree Days 18 25  
Month to date heating degree days 712 749  
Since 1 July heating degree days 7804 8538  
Cooling Degree Days 0 0  
Month to date cooling degree days 0 0  
Year to date cooling degree days 0 0  
Moisture  
Dew Point 28 °F    
Average Humidity 55    
Maximum Humidity 85    
Minimum Humidity 25    
Precipitation  
Precipitation 0.00 in 0.06 in 1.25 in (2012)
Month to date precipitation 1.92 1.67  
Year to date precipitation 7.62 7.34  
Sea Level Pressure  
Sea Level Pressure 30.19 in    
Wind  
Wind Speed 3 mph (NW)    
Max Wind Speed 14 mph    
Max Gust Speed 25 mph    
Visibility 10 miles    
Events      
T = Trace of Precipitation, MM = Missing Value Source: NWS Daily Summary

Daily Weather History Graph

Daily Weather History Graph

Search for Another Location

Airport or City:

Trip Planner

Search our weather history database for the weather conditions in past years. The results will help you decide how hot, cold, wet, or windy it might be!

Date:

Astronomy

Apr. 26, 2013 Rise Set
Actual Time 6:41 AM MDT 8:43 PM MDT
Civil Twilight 6:09 AM MDT 9:15 PM MDT
Nautical Twilight 5:30 AM MDT 9:55 PM MDT
Astronomical Twilight 4:47 AM MDT 10:38 PM MDT
Moon 10:15 PM MDT (4/26) 7:09 AM MDT (4/26)
Length of Visible Light 15h 06m
Length of Day
14h 02m
Full, 99% of the Moon is Illuminated
Apr 26
Full
May 2
Last Quarter
May 9
New
May 17
First Quarter
May 24
Full

Hourly Weather History & Observations

Time (MDT) Temp. Windchill Dew Point Humidity Pressure Visibility Wind Dir Wind Speed Gust Speed Precip Events Conditions
12:51 AM 37.9 °F 33.5 °F 26.1 °F 62% 30.12 in 10.0 mi NNE 5.8 mph - N/A   Clear
1:51 AM 37.0 °F 32.4 °F 27.0 °F 67% 30.12 in 10.0 mi North 5.8 mph - N/A   Clear
2:51 AM 34.0 °F - 27.0 °F 75% 30.14 in 10.0 mi Calm Calm - N/A   Clear
3:51 AM 33.1 °F 30.0 °F 26.1 °F 75% 30.14 in 10.0 mi NNE 3.5 mph - N/A   Clear
4:51 AM 32.0 °F 28.7 °F 26.1 °F 79% 30.16 in 10.0 mi South 3.5 mph - N/A   Clear
5:51 AM 30.0 °F - 25.0 °F 82% 30.18 in 10.0 mi Calm Calm - N/A   Clear
6:51 AM 28.9 °F 25.2 °F 25.0 °F 85% 30.20 in 10.0 mi SW 3.5 mph - N/A   Clear
7:51 AM 33.1 °F - 27.0 °F 78% 30.21 in 10.0 mi Calm Calm - N/A   Clear
8:51 AM 39.0 °F - 28.9 °F 67% 30.23 in 10.0 mi Calm Calm - N/A   Clear
9:51 AM 45.0 °F - 28.9 °F 53% 30.23 in 10.0 mi Calm Calm - N/A   Clear
10:51 AM 51.1 °F - 28.9 °F 43% 30.22 in 10.0 mi Calm Calm - N/A   Clear
11:51 AM 57.9 °F - 30.0 °F 35% 30.22 in 10.0 mi NNE 4.6 mph - N/A   Clear
12:51 PM 59.0 °F - 28.0 °F 31% 30.22 in 10.0 mi Variable 6.9 mph - N/A   Clear
1:51 PM 63.0 °F - 26.1 °F 25% 30.20 in 10.0 mi West 8.1 mph - N/A   Clear
2:51 PM 62.1 °F - 27.0 °F 26% 30.21 in 10.0 mi Calm Calm - N/A   Clear
3:51 PM 63.0 °F - 27.0 °F 26% 30.21 in 10.0 mi Variable 3.5 mph - N/A   Clear
4:51 PM 64.9 °F - 28.9 °F 26% 30.19 in 10.0 mi WSW 8.1 mph 25.3 mph N/A   Partly Cloudy
5:51 PM 63.0 °F - 30.0 °F 29% 30.20 in 10.0 mi West 4.6 mph - N/A   Clear
6:51 PM 64.9 °F - 30.0 °F 27% 30.20 in 10.0 mi West 10.4 mph - N/A   Mostly Cloudy
7:51 PM 62.1 °F - 30.9 °F 31% 30.19 in 10.0 mi West 5.8 mph - N/A   Clear
8:51 PM 59.0 °F - 32.0 °F 36% 30.19 in 8.0 mi Calm Calm - N/A   Clear
9:51 PM 51.1 °F - 32.0 °F 48% 30.22 in 10.0 mi North 5.8 mph - N/A   Clear
10:51 PM 48.0 °F - 30.0 °F 50% 30.22 in 10.0 mi North 3.5 mph - N/A   Clear
11:51 PM 45.0 °F 43.5 °F 30.0 °F 56% 30.21 in 10.0 mi North 3.5 mph - N/A   Clear